User: anonymous   Login
Location: Chandrammap?lem
(16.9200°N, 81.0051°E)
Time: 12:05:37
(UTC+00:00)
Language:

IRS-1C - Orbit

View from above orbital plane
View from above orbital plane
View from above satellite
View from above satellite

Ground track
Ground track

The orbit data is extracted from the following two-line orbital elements,

1 23751U 95072A   24205.92346446  .00000441  00000-0  21595-3 0  9996
2 23751  99.0129 196.1896 0001146  95.2375 264.8933 14.23143512482941
Epoch (UTC): 23 July 2024 22:09:47
Eccentricity: 0.0001146
inclination: 99.0129°
perigee height: 814 km
apogee height: 815 km
right ascension of ascending node: 196.1896°
argument of perigee: 95.2375°
revolutions per day: 14.23143512
mean anomaly at epoch: 264.8933°
orbit number at epoch: 48294

The dashed part of the orbit path shows where the satellite is in the earth's shadow,  

DLR